Vorticity
0 6 8 8 11 7 6 10 12 11 5 5 4 5 6 3 1 -1 -2 -4 -1 2 2 5 6 6 7 6 6 7 8 8 8 7 6 4 3 4 3 3 3 2 1 2 5 4 2 4 3 5 7 5 5 5 3 5 7 7 7 7 8 9 7 7 6 6 5 5 5 6 6 6 6 6 7 6 6 5 4 5 4 5 5 5 6 5 6 4 4 4 5 7 9 10 10 10 9
-7 -2 3 7 12 6 5 9 11 14 10 6 6 6 9 9 8 5 3 -0 -2 1 3 6 5 4 7 9 7 7 7 8 8 7 9 8 6 6 4 2 1 1 -1 -1 2 1 0 2 0 3 5 4 5 4 6 5 5 6 7 6 7 7 7 7 6 6 6 5 5 5 5 6 6 5 6 6 6 6 5 5 4 4 4 5 5 5 5 4 4 4 4 6 7 9 11 9 9
-4 -0 1 5 13 8 3 9 9 13 14 7 7 7 9 12 14 14 12 8 1 -1 5 9 7 4 6 10 10 9 8 8 8 6 7 8 9 8 7 5 5 6 4 2 3 2 3 5 -1 -1 3 5 7 4 6 7 5 6 6 6 6 6 5 5 6 5 5 5 5 4 5 5 5 5 5 6 6 5 6 5 4 4 4 5 4 4 4 4 4 3 4 5 6 8 10 10 10
8 7 4 1 8 10 3 6 6 7 11 7 9 8 5 9 12 15 15 13 7 -1 2 9 10 6 4 7 10 11 9 9 11 9 6 6 8 7 6 7 8 9 9 7 6 7 8 10 7 5 4 4 7 3 2 5 5 6 6 7 6 6 6 5 5 4 5 5 5 4 4 5 5 5 5 6 5 5 6 5 5 5 5 5 4 5 4 4 4 4 4 5 6 7 10 12 11
10 8 8 5 5 10 4 6 6 0 2 4 11 10 2 4 4 8 9 10 11 5 1 4 11 10 4 5 8 10 9 7 11 12 8 6 8 7 5 6 7 8 8 7 8 10 10 12 11 10 8 5 6 4 4 7 6 5 5 6 7 6 6 5 5 5 6 5 5 4 4 5 5 5 5 5 6 6 5 5 6 5 6 6 5 4 4 4 3 4 5 4 6 6 8 11 12
3 3 6 8 7 12 7 5 6 -1 -2 -0 7 10 2 0 -0 2 3 3 5 6 4 2 7 12 9 7 6 8 10 7 7 10 10 10 12 10 7 6 7 7 7 8 8 10 10 10 9 9 9 7 7 6 6 8 6 6 6 5 6 7 7 6 7 6 6 5 5 4 4 5 4 5 5 5 5 5 5 6 5 5 6 7 6 5 5 4 4 4 4 4 4 5 6 8 11
1 -2 -3 4 9 14 6 2 4 -0 -1 -2 2 7 3 0 -1 1 1 3 4 4 5 2 4 8 8 7 8 7 9 10 7 7 8 10 14 14 12 9 8 10 10 8 8 9 8 8 7 6 6 7 7 5 5 6 5 6 6 5 6 6 6 6 6 6 6 5 4 4 5 5 4 4 5 5 4 4 5 5 5 5 6 6 7 6 6 5 5 4 4 4 4 5 5 5 9
2 -4 -6 1 4 6 1 0 2 0 1 -0 1 3 6 2 -2 0 -2 -3 2 5 6 5 4 5 5 5 9 8 7 10 8 8 7 7 9 12 16 16 14 13 12 10 8 8 8 7 7 7 6 6 7 7 6 6 7 5 4 5 6 6 6 6 5 5 5 5 4 4 4 4 4 4 4 4 3 3 4 4 4 5 5 6 6 6 6 6 6 5 4 4 4 4 5 5 6
1 -1 -2 1 -0 0 -1 1 2 2 4 4 4 2 3 2 -0 1 -4 -6 -3 3 7 9 6 3 5 4 8 10 8 8 6 7 7 7 6 7 10 13 12 9 9 9 8 7 7 7 7 7 7 6 7 8 7 6 6 6 6 4 5 6 5 6 6 6 6 6 6 5 5 4 4 4 4 4 4 3 3 4 4 4 5 5 6 6 6 6 6 6 5 5 5 4 4 5 4
-1 -1 -3 -2 1 5 -1 0 3 1 2 2 5 1 -1 2 3 3 -1 -2 -2 0 4 8 9 5 6 1 1 7 8 9 6 4 5 6 6 5 5 6 8 8 7 6 5 5 3 3 4 5 6 6 5 5 6 6 6 6 7 6 5 6 6 6 7 6 5 5 6 5 5 4 4 4 4 4 4 4 4 4 4 4 4 4 5 5 5 5 6 6 6 6 6 5 4 4 4
-2 2 -2 -7 1 8 -3 -5 0 0 3 1 4 2 1 4 5 2 -0 2 0 1 2 4 11 10 9 3 -1 2 4 8 7 5 4 5 5 5 5 4 5 7 6 5 3 3 3 2 1 1 3 2 2 3 3 4 6 6 6 6 7 7 7 7 7 7 6 5 5 4 3 4 4 4 4 3 4 4 4 4 4 4 3 4 4 4 4 4 5 5 5 6 6 6 5 4 3
-1 4 -2 -7 1 8 -3 -5 -1 -1 2 1 3 4 3 6 5 -0 -2 3 0 1 3 1 10 12 10 6 3 3 2 4 5 6 5 6 6 4 4 3 3 5 5 5 4 4 5 4 3 3 3 4 4 4 4 4 5 5 5 5 6 7 8 8 9 9 9 8 7 7 6 5 5 5 5 4 4 4 4 4 4 4 3 3 3 4 4 4 4 4 4 4 5 6 7 6 3
-2 -1 -7 -6 2 4 0 -1 -2 -5 -1 -0 2 5 2 2 5 3 -1 4 1 0 3 0 10 14 10 8 6 7 4 4 4 4 4 4 6 4 4 4 3 4 5 6 5 4 4 5 5 5 5 6 6 6 5 5 4 4 5 4 5 6 7 7 7 7 8 9 9 9 9 9 8 8 7 6 5 4 5 4 4 4 4 3 4 3 3 4 3 3 3 2 4 6 6 6 6
2 -2 -6 -1 1 -0 1 2 -0 -2 4 3 3 3 0 -2 1 6 3 3 -0 -1 4 6 14 15 11 8 5 8 5 5 6 4 4 1 4 4 4 6 5 5 5 7 8 6 6 6 6 6 6 5 6 7 6 5 5 5 5 5 5 4 4 4 4 4 5 6 7 8 8 9 10 10 10 10 8 6 5 5 5 5 4 4 4 4 4 4 3 2 3 2 4 6 5 6 7
5 -5 -5 0 -1 -2 -2 0 2 4 6 3 6 4 -1 -0 -1 6 7 3 3 3 7 10 14 13 12 9 4 7 6 6 7 5 6 2 0 1 1 3 4 5 5 5 6 7 7 7 7 7 7 7 6 7 6 6 6 4 3 3 3 2 2 2 3 3 3 3 4 3 3 5 5 7 9 10 11 11 9 7 6 5 4 4 4 5 4 4 3 2 2 2 3 4 4 6 6
-2 -7 -2 -1 -3 -1 -2 3 7 4 4 1 5 4 -0 2 -1 5 8 4 7 9 10 9 9 11 11 11 5 5 7 7 7 5 5 5 3 2 2 2 2 3 3 3 4 5 6 6 6 6 7 7 6 5 6 6 5 4 3 2 3 2 3 3 3 3 3 2 2 2 1 1 1 2 3 4 8 10 11 10 9 8 6 5 4 4 5 5 4 4 2 2 4 5 3 4 5
-6 -5 4 1 -4 4 5 7 7 1 3 2 -0 -0 1 1 -4 1 5 4 11 12 11 7 7 12 11 13 10 3 7 8 8 6 3 2 3 4 4 5 4 2 2 2 2 3 4 5 4 5 5 5 5 5 6 5 5 6 5 5 5 4 4 5 5 6 6 5 5 5 4 3 2 2 2 2 2 4 6 8 10 11 11 11 9 4 4 5 5 4 4 3 4 4 2 3 4
-7 -1 3 3 -3 4 8 5 7 2 0 1 -2 -1 1 1 -1 5 5 4 12 12 9 6 6 12 10 12 13 5 7 9 8 9 6 3 1 2 3 4 4 3 2 1 0 1 1 2 4 5 4 4 5 5 7 6 5 7 6 6 6 5 6 6 6 7 7 6 7 6 6 7 5 4 4 4 3 2 2 3 6 6 8 14 19 15 8 7 7 6 5 5 5 4 2 3 3
-5 2 -0 0 -4 2 9 4 6 3 -2 -1 0 2 3 6 8 9 8 7 11 9 7 5 5 11 10 10 12 9 11 10 7 8 10 10 6 5 4 3 4 4 5 3 2 2 1 1 2 2 2 2 3 2 4 5 3 4 5 6 7 7 7 6 6 8 7 5 5 5 5 6 7 7 5 5 5 5 4 4 5 3 2 7 16 20 13 9 8 7 6 5 5 5 4 3 2
-1 4 4 1 -4 2 9 4 3 2 0 2 3 4 6 9 9 8 10 10 11 9 5 3 5 9 10 10 10 10 12 8 6 7 8 9 9 10 9 5 4 4 7 8 7 5 4 4 3 3 3 3 3 2 3 3 1 1 2 3 4 4 5 5 5 6 6 5 5 4 3 3 6 7 6 5 5 5 5 5 5 5 5 4 7 11 10 10 10 9 9 8 7 6 6 5 3
2 4 10 2 -2 4 7 5 5 5 6 13 15 12 12 11 10 13 12 9 12 12 5 2 5 8 7 10 10 9 10 7 4 5 5 5 5 9 12 10 9 7 7 7 7 6 5 5 5 5 5 4 4 3 2 2 1 1 2 3 2 3 3 2 2 3 2 2 3 4 3 2 4 7 7 5 5 5 4 4 4 5 7 6 6 6 7 7 8 11 10 9 11 10 7 5 5
10 3 1 1 9 12 11 8 6 12 18 21 19 11 14 13 11 16 15 11 13 11 7 4 5 7 6 8 10 7 10 8 5 4 3 4 5 6 9 12 13 10 6 6 7 6 4 6 6 5 4 4 5 3 2 2 2 2 3 5 3 3 5 5 3 2 3 3 3 4 3 1 2 5 6 5 6 7 7 5 4 5 6 6 6 4 7 6 5 10 10 8 13 16 14 8 5
13 4 4 14 16 7 12 18 14 19 18 12 5 1 10 9 6 12 12 10 8 6 8 9 8 7 7 9 7 3 6 8 6 6 4 6 8 7 8 11 13 10 5 5 7 5 4 6 4 2 2 2 2 2 1 2 4 4 2 2 3 5 5 3 2 1 1 3 3 4 5 4 3 4 5 5 5 7 8 8 7 6 6 6 5 2 3 4 4 8 8 7 11 18 22 17 9
11 13 16 16 3 -2 16 24 16 11 6 3 1 6 12 4 2 7 7 9 8 5 5 8 9 6 6 10 8 2 2 4 5 4 3 8 9 7 10 11 11 9 4 4 6 5 5 4 2 1 0 0 1 1 1 2 3 3 1 1 3 10 7 -1 -0 2 1 5 6 6 5 4 4 5 7 5 2 4 6 8 7 7 8 7 5 3 2 3 3 3 4 5 9 15 22 24 17
12 16 9 -2 -6 6 21 14 2 1 2 3 2 10 12 5 6 7 10 16 12 7 4 6 8 5 5 11 13 8 3 4 2 1 3 7 7 7 8 8 9 8 3 3 4 5 3 1 0 -0 -0 1 1 2 1 2 5 3 1 1 1 10 18 9 1 -1 1 4 3 2 2 2 2 4 8 8 3 1 3 7 8 7 7 8 6 5 5 6 6 4 1 1 4 11 18 23 22
13 15 2 -3 2 12 11 -0 -2 -1 -2 1 2 5 7 9 11 12 18 23 16 9 6 7 8 8 12 13 15 14 10 10 5 3 8 8 6 8 7 5 7 7 4 3 2 5 6 4 2 1 4 4 -0 1 2 1 4 3 1 2 0 6 19 17 9 5 3 2 -1 -1 1 3 7 8 6 5 3 3 3 6 10 8 5 5 5 5 6 7 7 6 3 1 -0 5 14 19 22
14 15 5 1 9 14 -2 -7 5 -0 -9 -0 4 1 5 8 9 16 21 19 15 12 10 13 16 14 14 12 13 14 14 16 11 8 13 13 9 10 9 6 5 7 8 4 1 2 5 6 3 2 7 8 3 0 -0 0 1 0 -1 0 2 4 6 8 10 10 8 8 7 3 -0 -1 5 10 8 4 2 4 4 7 11 9 6 5 4 4 5 6 7 7 5 3 -0 -2 5 15 19
12 11 8 4 16 19 -8 -10 8 1 -7 -1 2 2 6 1 4 23 23 14 14 13 13 16 16 10 8 9 12 14 12 12 13 12 13 14 12 10 11 11 6 7 10 10 8 6 7 10 9 6 7 8 11 11 6 5 6 6 6 6 8 6 0 -2 -4 -1 4 10 12 8 5 3 4 7 9 8 5 5 3 5 9 8 9 8 2 -0 3 5 7 8 6 3 2 -0 -1 5 13
10 9 12 8 15 15 -9 -8 1 -3 -3 -1 1 3 4 -2 5 26 22 16 15 8 8 9 9 8 6 8 9 10 8 8 12 12 10 10 10 8 12 13 10 8 10 12 13 15 14 11 18 22 20 16 10 12 11 5 4 7 9 9 10 9 7 1 -9 -5 5 12 20 18 10 6 6 3 4 8 8 7 5 2 4 8 9 2 -4 -2 3 7 9 11 10 5 3 3 -0 -2 3
11 7 6 4 10 8 -5 -1 -1 -4 -1 -2 2 1 2 -0 5 23 22 16 11 4 6 9 9 10 10 11 10 8 8 10 11 8 7 8 7 7 10 11 10 10 11 12 12 20 14 8 25 28 30 35 16 7 9 5 5 8 10 10 10 13 14 8 2 9 10 10 22 24 14 7 5 3 8 17 14 6 2 1 2 6 7 0 -2 2 3 6 6 6 10 12 7 3 2 0 -1
12 0 -5 -3 6 7 -2 2 0 -3 -1 -1 1 -0 3 1 1 20 25 11 5 6 9 11 11 10 10 12 13 11 9 10 9 6 6 7 7 8 8 7 9 8 8 10 10 17 9 4 24 15 11 33 27 18 17 15 15 13 12 12 11 11 9 6 8 13 6 1 9 12 10 7 5 7 11 17 19 15 7 1 0 3 5 5 2 1 1 3 6 4 5 12 14 8 4 3 1
9 -1 -1 -2 2 8 1 -0 -2 -4 -0 1 1 0 3 1 -1 17 25 9 3 10 8 6 9 8 8 9 10 11 8 8 8 8 8 7 8 9 8 6 7 6 5 9 6 9 5 2 14 6 1 13 13 15 15 13 12 8 7 6 5 5 3 3 4 5 3 1 2 2 4 2 1 7 10 8 11 18 19 13 6 2 2 2 -1 -2 -4 -5 1 6 4 7 14 14 9 4 2
5 2 7 4 -2 2 3 1 -0 -3 -1 -1 -0 2 3 1 -0 11 22 10 1 9 6 1 7 9 9 9 8 9 8 9 9 8 8 7 8 7 7 5 5 5 4 6 5 6 6 5 9 7 7 7 3 6 6 5 7 7 8 6 4 2 1 4 4 5 7 5 2 1 4 3 1 3 10 13 6 5 12 17 15 9 5 2 -1 -0 -2 -8 -3 6 4 4 10 13 14 9 4
7 4 10 13 4 1 3 3 2 -1 -1 -1 -1 0 -1 -1 0 5 17 13 3 7 4 0 6 7 6 6 6 8 8 8 8 7 7 6 7 5 5 5 5 6 5 5 6 6 6 6 7 7 7 7 7 7 5 7 7 7 10 9 10 7 5 6 6 7 7 4 2 1 3 5 5 3 7 14 11 6 5 8 14 14 11 9 8 11 10 5 6 11 7 2 6 10 12 12 9
6 4 9 14 11 5 -1 -0 2 0 0 1 -2 -2 -3 -3 2 5 11 14 6 5 5 0 3 4 3 3 3 4 4 5 4 5 6 5 6 5 5 6 5 6 6 6 7 7 6 6 6 7 7 7 7 7 7 8 7 9 11 12 13 10 10 8 6 6 4 4 3 2 5 6 7 7 5 8 12 12 8 7 12 12 10 10 17 21 15 8 8 11 10 5 4 7 10 11 10
3 0 2 5 9 6 -0 2 4 1 4 4 -0 1 -1 -1 10 9 7 13 7 3 6 2 3 8 6 3 2 1 2 3 3 2 4 4 4 5 5 5 6 6 6 6 7 8 8 7 7 7 7 7 7 6 7 7 7 9 9 10 9 3 4 6 8 10 7 10 9 4 8 9 8 7 5 7 10 10 8 8 10 12 10 5 13 18 8 3 5 6 8 7 6 7 9 10 10
2 1 2 2 6 6 5 7 6 3 2 -0 -0 3 0 4 16 12 4 13 10 2 6 4 5 11 7 4 3 3 4 4 4 3 4 6 6 6 6 6 7 6 6 6 7 7 7 7 7 7 7 7 7 6 7 7 6 7 5 10 15 10 8 8 9 10 8 11 12 8 9 10 11 12 10 9 9 7 8 9 7 10 14 9 10 15 11 6 5 4 5 7 9 10 8 8 10
4 3 1 0 5 6 1 1 7 9 3 -1 1 2 4 9 14 10 8 16 12 3 5 3 5 10 5 4 4 5 6 6 7 6 7 9 8 8 9 9 9 9 9 8 8 7 7 7 6 6 7 7 7 7 7 6 5 6 4 7 12 11 12 12 9 9 8 9 10 9 10 11 12 14 14 13 12 9 10 12 10 7 9 10 5 4 6 6 3 3 3 4 8 13 11 9 10
7 2 -1 -3 2 5 -4 -7 0 5 4 3 2 4 9 9 7 6 10 17 10 4 7 4 4 8 4 3 5 6 6 6 6 6 8 8 7 7 8 8 9 10 11 9 7 5 5 7 6 6 7 7 7 7 7 7 7 7 7 7 6 4 6 7 6 8 8 8 9 8 8 9 9 10 11 11 11 10 9 11 13 10 8 11 8 -1 -3 -0 3 4 3 3 5 10 12 11 11
8 4 0 -5 -3 2 -0 -2 -3 -3 1 -1 -2 7 8 3 3 3 6 14 9 3 8 7 5 5 3 3 4 5 5 5 5 4 5 6 5 6 7 7 9 10 11 8 4 3 4 6 5 5 6 6 7 7 7 8 8 8 8 9 9 7 6 4 5 6 4 3 6 7 7 6 5 6 8 8 7 9 11 11 13 13 13 17 17 12 6 2 3 3 5 6 4 10 12 6 9
7 4 -1 -3 -1 2 3 3 -0 -1 1 -3 -3 4 4 2 5 4 6 13 8 4 8 7 6 4 2 3 2 4 5 4 4 3 3 6 6 5 5 7 8 10 11 7 3 2 3 5 4 4 4 5 5 6 6 6 7 8 8 9 9 10 10 10 9 8 7 6 5 5 6 6 6 7 7 7 7 8 11 13 14 14 15 15 14 19 19 13 10 5 5 7 4 12 15 2 5
2 -3 -1 6 7 4 5 5 4 2 -1 -1 1 5 10 8 5 8 14 14 5 5 7 5 5 3 -1 1 1 4 7 6 6 4 5 7 6 6 7 8 11 12 11 8 5 3 4 5 4 3 4 5 5 5 6 7 7 8 9 9 10 10 10 11 12 11 10 10 8 6 6 6 7 8 8 7 7 9 11 12 15 15 14 10 9 17 20 17 20 13 3 8 9 11 11 4 7
6 -1 3 10 7 1 5 5 2 0 -3 -0 1 7 15 8 9 20 20 10 4 6 7 3 5 4 -0 -0 1 5 6 6 7 6 6 6 5 8 9 10 11 9 9 8 6 5 5 5 5 5 6 6 7 8 8 9 9 10 10 9 9 9 8 9 10 10 9 9 9 9 8 9 10 9 9 8 7 8 11 11 12 15 16 15 11 10 12 15 21 18 9 12 14 12 11 11 11
12 9 5 6 5 1 2 2 1 0 0 1 -2 6 13 5 14 29 19 6 3 4 5 3 3 5 3 1 1 5 5 5 6 5 4 4 5 9 9 8 7 5 6 7 7 6 5 4 4 5 7 8 9 9 9 9 9 8 8 7 6 7 7 8 10 10 10 10 10 11 10 10 12 13 12 11 10 9 9 10 11 12 14 18 18 10 8 10 11 11 9 7 7 8 12 12 11
8 9 4 4 6 3 2 2 2 1 -0 -0 -3 5 9 -2 10 25 15 4 1 3 5 1 2 5 4 2 1 4 4 4 5 2 2 2 5 8 8 5 3 3 6 6 6 6 4 3 3 4 6 8 8 8 8 8 8 7 7 6 7 8 9 10 11 11 12 11 11 13 12 10 11 13 13 12 12 11 10 10 9 11 11 15 24 19 10 10 11 11 9 7 9 11 14 12 10
3 4 4 4 4 4 3 1 1 -1 -0 1 -2 2 3 -4 12 26 13 0 2 7 4 -2 2 5 3 2 1 3 3 3 3 1 0 1 2 6 7 5 1 -0 3 7 8 7 5 2 2 5 7 7 7 6 6 6 6 6 6 7 8 9 9 9 10 10 10 11 11 11 11 12 11 11 12 12 12 10 9 9 7 10 10 9 20 20 13 15 15 10 6 8 12 11 11 10 7
5 3 3 4 4 4 4 1 1 -0 -0 1 -3 1 2 -2 16 28 12 0 5 7 -1 -3 4 5 4 2 0 3 3 2 4 2 0 -0 -0 3 5 6 3 -2 -2 4 8 9 6 1 2 6 7 7 8 7 8 8 9 9 9 9 10 10 9 9 8 8 9 9 10 11 11 12 12 12 12 12 12 10 9 10 9 11 9 8 15 14 13 21 17 6 5 9 7 3 7 9 7
10 7 5 6 7 8 8 6 6 5 3 3 2 5 5 4 18 27 15 4 5 5 3 4 6 4 4 3 2 5 4 3 4 3 2 1 -0 3 6 6 6 2 -3 -2 6 10 5 0 3 7 8 8 8 9 10 11 11 12 11 10 10 10 10 8 7 7 8 8 8 10 11 11 12 13 13 13 13 12 12 11 11 12 10 9 13 10 10 19 18 8 8 11 7 2 6 11 11
5 4 4 6 8 12 15 12 9 8 7 7 6 6 5 7 16 20 15 6 1 4 7 5 4 3 5 4 5 6 4 4 5 3 3 2 1 6 8 6 7 7 0 -3 5 10 5 -0 3 7 8 8 9 9 10 9 10 11 10 9 9 10 9 8 8 7 6 6 7 9 11 12 14 14 15 16 15 15 15 14 14 15 14 11 12 13 13 13 13 12 11 8 5 3 4 9 12
5 4 4 6 7 10 13 14 12 9 7 7 7 9 8 8 11 12 10 5 -0 1 2 1 3 4 4 5 5 5 4 5 4 3 3 2 2 6 8 6 7 9 4 -0 6 9 4 -0 4 8 8 8 9 9 9 8 9 10 9 8 8 9 9 8 8 7 6 5 6 8 10 13 15 16 16 16 17 17 15 15 15 16 16 16 14 14 14 10 10 15 17 11 6 5 4 4 4
10 9 7 6 6 8 9 12 14 12 10 9 11 14 14 10 8 7 7 6 3 0 -1 -0 3 2 1 3 4 5 5 5 5 5 3 1 2 6 7 5 5 9 6 4 7 9 4 -0 4 9 8 8 8 8 8 7 7 9 9 9 9 9 10 10 9 7 6 6 6 8 10 12 15 16 16 16 16 18 17 15 16 17 16 17 18 17 15 13 10 11 18 19 12 9 9 8 6
13 14 12 9 7 7 7 9 10 10 9 10 12 13 14 12 9 9 11 9 5 2 1 0 0 -0 0 2 3 3 4 4 6 6 3 1 2 6 7 4 5 9 8 6 8 9 4 -0 5 10 8 7 8 6 6 6 6 7 7 8 10 10 11 11 10 9 6 6 8 10 11 13 15 16 16 16 16 16 17 15 14 16 17 17 19 20 17 15 11 6 9 15 13 9 10 11 11
13 16 15 13 13 10 8 7 8 8 6 7 8 9 11 12 12 14 14 10 6 5 4 2 1 2 3 3 4 4 4 5 6 5 2 1 2 6 6 4 7 10 8 6 8 9 3 -1 5 10 8 7 7 6 6 6 5 6 6 7 8 10 11 11 11 10 9 8 10 12 13 14 15 15 15 15 14 13 13 12 11 12 15 16 18 21 21 17 14 11 5 3 5 7 7 8 7
5 8 9 12 18 19 15 12 9 9 7 4 4 5 6 8 11 12 12 11 9 7 5 3 4 5 6 7 7 6 5 5 5 3 2 3 4 5 4 5 8 9 7 6 8 8 3 0 6 10 7 6 7 6 6 5 4 5 6 7 8 8 8 8 8 9 9 10 12 14 14 14 13 14 15 13 12 11 11 11 11 11 12 13 14 19 24 22 17 16 12 4 2 5 7 9 9
4 4 3 5 12 16 18 17 13 11 8 5 3 1 2 6 10 11 11 13 10 7 6 4 2 6 9 8 6 5 4 4 3 2 3 5 6 5 4 6 8 7 7 7 8 7 2 1 7 9 6 6 6 6 6 5 5 5 6 7 8 8 8 7 7 8 10 12 14 14 14 13 14 13 13 12 12 12 12 13 14 13 13 12 12 13 20 26 22 17 15 12 8 8 9 10 13
7 6 5 6 8 8 11 14 15 13 10 7 5 3 1 3 9 10 11 14 12 9 7 1 -1 6 9 7 5 4 4 4 4 3 4 6 6 4 5 8 8 7 9 8 7 6 1 3 8 7 6 6 5 5 6 6 5 6 7 8 8 8 8 8 8 9 12 14 15 16 15 14 15 14 14 14 14 15 16 16 16 14 12 11 12 12 13 22 27 21 16 13 11 12 11 11 12
3 4 6 10 12 9 6 9 11 11 10 10 9 8 2 0 7 11 12 17 18 15 8 2 4 8 8 6 4 4 4 4 5 6 6 6 4 3 8 9 7 8 10 8 7 4 1 4 7 7 7 6 4 5 5 5 6 6 7 8 8 8 8 10 10 10 13 15 15 17 15 14 15 15 16 16 18 19 17 16 15 14 13 12 14 15 13 17 25 26 22 16 12 13 13 12 14
-0 5 9 13 14 9 6 7 7 6 8 10 12 12 6 3 9 12 13 18 20 17 11 8 10 11 6 4 4 4 5 5 7 7 6 5 3 5 9 9 8 10 10 7 6 2 1 5 7 6 7 6 4 4 5 5 5 6 7 7 7 8 9 11 11 12 15 16 16 16 14 13 13 14 16 17 18 18 16 15 15 16 18 19 18 19 16 14 18 23 23 19 16 14 13 13 16
Height
5906 5906 5906 5905 5904 5903 5903 5903 5902 5901 5900 5898 5897 5897 5897 5896 5897 5896 5896 5895 5894 5894 5893 5894 5895 5894 5893 5893 5893 5892 5893 5893 5893 5893 5894 5894 5894 5894 5895 5895 5897 5899 5899 5899 5899 5900 5899 5899 5902 5904 5904 5904 5906 5907 5908 5908 5908 5908 5909 5909 5909 5910 5911 5912 5913 5913 5914 5914 5915 5915 5915 5916 5916 5916 5917 5917 5918 5919 5919 5920 5920 5920 5920 5921 5921 5921 5921 5922 5922 5922 5923 5923 5923 5923 5922 5923 5923
5907 5908 5908 5907 5905 5904 5904 5903 5903 5903 5902 5900 5899 5899 5899 5899 5899 5899 5897 5896 5895 5895 5895 5896 5896 5895 5895 5895 5895 5894 5894 5895 5895 5894 5894 5895 5895 5895 5895 5896 5898 5900 5901 5901 5901 5901 5901 5900 5900 5902 5903 5905 5907 5908 5909 5909 5909 5909 5909 5909 5909 5910 5911 5912 5912 5913 5914 5914 5914 5915 5915 5916 5916 5916 5917 5918 5918 5919 5919 5920 5920 5920 5920 5921 5921 5921 5922 5922 5922 5923 5923 5923 5923 5922 5922 5922 5922
5909 5909 5909 5909 5907 5905 5904 5904 5903 5904 5904 5902 5901 5900 5900 5901 5902 5901 5900 5899 5898 5897 5897 5898 5897 5896 5897 5897 5897 5897 5896 5896 5897 5896 5895 5895 5896 5896 5896 5897 5898 5900 5902 5902 5902 5902 5902 5902 5901 5903 5903 5904 5905 5907 5909 5909 5909 5909 5909 5909 5909 5909 5910 5911 5912 5912 5913 5913 5914 5914 5915 5915 5916 5917 5917 5918 5918 5919 5919 5919 5919 5920 5920 5920 5921 5921 5922 5922 5923 5923 5923 5923 5923 5922 5922 5922 5922
5910 5910 5910 5910 5909 5907 5906 5905 5904 5905 5905 5904 5903 5902 5902 5904 5904 5903 5902 5901 5900 5898 5898 5898 5898 5899 5899 5899 5899 5899 5898 5898 5898 5898 5897 5897 5897 5897 5897 5898 5899 5900 5901 5901 5902 5902 5903 5903 5903 5904 5905 5905 5905 5906 5908 5908 5908 5908 5908 5908 5909 5909 5910 5910 5911 5911 5912 5913 5913 5914 5915 5915 5916 5917 5918 5918 5919 5919 5919 5919 5919 5920 5920 5921 5921 5922 5922 5922 5923 5923 5923 5923 5923 5923 5922 5922 5922
5911 5911 5911 5911 5910 5908 5907 5906 5906 5906 5906 5906 5906 5904 5905 5906 5906 5906 5905 5904 5902 5901 5900 5900 5901 5902 5901 5901 5901 5901 5900 5900 5900 5899 5898 5898 5899 5899 5899 5899 5900 5900 5901 5901 5902 5903 5903 5904 5904 5905 5905 5906 5906 5906 5907 5907 5907 5907 5908 5908 5909 5909 5910 5910 5911 5911 5912 5913 5913 5914 5915 5916 5917 5917 5918 5919 5919 5919 5919 5919 5920 5920 5921 5921 5922 5922 5922 5923 5923 5924 5924 5924 5923 5923 5922 5922 5923
5912 5911 5911 5911 5911 5910 5908 5908 5907 5907 5907 5907 5908 5907 5907 5908 5908 5908 5907 5906 5904 5903 5903 5903 5904 5904 5904 5903 5903 5903 5903 5902 5901 5901 5900 5900 5901 5900 5901 5901 5902 5902 5902 5902 5903 5903 5904 5904 5905 5905 5905 5906 5906 5906 5906 5906 5907 5907 5908 5909 5909 5910 5911 5911 5912 5912 5913 5914 5914 5915 5916 5916 5917 5918 5918 5919 5919 5919 5919 5919 5920 5920 5921 5922 5922 5923 5923 5923 5923 5924 5924 5924 5924 5923 5923 5923 5923
5912 5912 5912 5912 5912 5911 5910 5909 5909 5909 5909 5909 5909 5909 5909 5910 5910 5910 5909 5908 5907 5906 5906 5906 5906 5906 5907 5905 5906 5906 5905 5904 5903 5903 5902 5902 5902 5902 5903 5903 5903 5903 5904 5904 5904 5904 5904 5905 5905 5905 5906 5906 5906 5905 5905 5906 5907 5907 5908 5909 5910 5911 5911 5912 5913 5913 5914 5915 5915 5916 5916 5917 5917 5918 5918 5918 5918 5918 5918 5919 5919 5920 5921 5921 5922 5923 5923 5923 5924 5924 5924 5924 5924 5924 5923 5923 5924
5914 5913 5913 5913 5913 5913 5912 5911 5911 5911 5911 5910 5910 5911 5911 5911 5911 5911 5911 5910 5910 5909 5909 5909 5907 5909 5909 5907 5908 5908 5907 5906 5904 5905 5904 5904 5904 5904 5905 5905 5905 5905 5905 5905 5905 5905 5905 5905 5905 5906 5906 5906 5906 5906 5906 5906 5907 5907 5908 5909 5910 5911 5912 5913 5914 5914 5915 5915 5916 5916 5916 5917 5917 5918 5918 5918 5918 5918 5918 5919 5919 5920 5920 5921 5921 5922 5922 5923 5923 5924 5924 5924 5924 5924 5924 5924 5924
5915 5914 5914 5914 5915 5915 5914 5913 5913 5913 5912 5912 5912 5913 5913 5913 5913 5913 5912 5912 5912 5911 5912 5911 5910 5911 5910 5909 5910 5909 5908 5908 5907 5907 5906 5906 5906 5906 5907 5907 5906 5906 5905 5905 5905 5905 5906 5906 5906 5906 5907 5907 5907 5907 5907 5907 5908 5908 5909 5909 5910 5911 5912 5913 5914 5914 5915 5916 5916 5916 5917 5917 5917 5917 5917 5917 5918 5918 5918 5919 5919 5920 5920 5920 5921 5921 5921 5922 5923 5923 5924 5924 5924 5924 5925 5925 5924
5915 5915 5914 5915 5915 5916 5915 5914 5914 5914 5914 5914 5914 5914 5915 5915 5915 5914 5914 5914 5913 5914 5914 5913 5912 5913 5912 5911 5911 5910 5910 5909 5909 5909 5908 5908 5908 5908 5908 5908 5908 5907 5907 5906 5906 5906 5906 5907 5907 5907 5908 5908 5908 5908 5908 5908 5909 5909 5909 5910 5911 5912 5912 5913 5914 5914 5915 5915 5916 5916 5916 5917 5917 5917 5917 5917 5918 5918 5919 5919 5919 5919 5920 5920 5920 5920 5921 5921 5922 5923 5924 5924 5924 5924 5924 5925 5925
5916 5915 5915 5916 5916 5917 5916 5915 5915 5915 5915 5915 5916 5916 5916 5916 5916 5916 5916 5916 5916 5916 5916 5915 5914 5914 5913 5913 5913 5912 5912 5911 5911 5910 5910 5910 5910 5910 5910 5910 5910 5910 5909 5908 5908 5907 5908 5908 5908 5908 5909 5909 5909 5909 5909 5910 5910 5910 5910 5911 5912 5912 5913 5913 5914 5914 5915 5915 5916 5916 5916 5916 5916 5917 5917 5917 5918 5918 5918 5919 5919 5919 5919 5919 5919 5920 5920 5921 5921 5922 5923 5924 5924 5924 5924 5924 5925
5917 5916 5916 5917 5918 5917 5917 5916 5916 5917 5917 5917 5917 5917 5918 5918 5917 5917 5917 5918 5917 5917 5917 5916 5916 5915 5915 5915 5914 5914 5913 5913 5912 5912 5911 5911 5911 5911 5911 5911 5911 5911 5911 5910 5910 5909 5909 5909 5909 5910 5910 5911 5911 5911 5911 5911 5911 5911 5912 5912 5912 5913 5913 5914 5914 5914 5915 5915 5915 5916 5916 5916 5916 5917 5917 5917 5918 5918 5918 5918 5919 5919 5918 5918 5918 5919 5919 5920 5921 5921 5922 5923 5923 5923 5924 5924 5924
5917 5916 5916 5918 5918 5918 5918 5918 5917 5918 5918 5918 5918 5918 5919 5919 5919 5919 5919 5919 5919 5919 5918 5917 5917 5917 5916 5916 5915 5915 5915 5914 5914 5913 5913 5913 5913 5913 5913 5913 5912 5912 5912 5912 5912 5911 5911 5911 5911 5912 5912 5912 5912 5912 5912 5912 5912 5913 5913 5913 5913 5914 5914 5915 5915 5915 5915 5916 5916 5916 5917 5917 5917 5917 5917 5917 5918 5918 5918 5918 5918 5918 5918 5918 5918 5918 5919 5919 5920 5921 5922 5922 5922 5922 5922 5923 5923
5918 5917 5918 5919 5919 5919 5919 5919 5918 5918 5919 5919 5919 5919 5919 5919 5919 5920 5920 5921 5921 5921 5920 5919 5918 5918 5917 5916 5916 5916 5916 5916 5915 5915 5914 5914 5914 5914 5914 5914 5914 5914 5913 5913 5913 5913 5913 5913 5913 5913 5914 5914 5914 5914 5914 5914 5913 5914 5914 5914 5915 5915 5915 5915 5916 5916 5916 5916 5916 5917 5917 5917 5917 5917 5918 5918 5918 5918 5917 5917 5917 5917 5917 5917 5917 5917 5918 5919 5919 5920 5921 5921 5921 5921 5921 5921 5922
5919 5918 5919 5920 5920 5919 5920 5920 5919 5919 5919 5919 5919 5919 5919 5920 5920 5920 5921 5922 5922 5922 5921 5920 5919 5918 5917 5917 5917 5916 5916 5916 5916 5916 5915 5915 5915 5915 5915 5915 5915 5915 5915 5915 5914 5914 5914 5914 5914 5915 5915 5915 5915 5914 5914 5914 5914 5914 5914 5915 5915 5915 5916 5916 5916 5916 5917 5917 5917 5917 5918 5918 5918 5918 5918 5918 5918 5918 5917 5917 5917 5916 5916 5916 5916 5916 5917 5917 5918 5918 5919 5920 5920 5919 5919 5919 5920
5919 5919 5920 5921 5920 5920 5920 5920 5920 5919 5920 5920 5920 5920 5919 5920 5920 5921 5922 5922 5922 5922 5922 5921 5920 5919 5918 5917 5917 5917 5917 5917 5917 5917 5916 5916 5916 5916 5916 5916 5917 5916 5916 5916 5916 5916 5915 5915 5915 5915 5915 5915 5915 5915 5915 5915 5915 5915 5914 5914 5915 5915 5915 5916 5916 5917 5917 5918 5918 5918 5918 5918 5918 5918 5918 5918 5918 5918 5918 5917 5917 5916 5916 5916 5915 5915 5916 5916 5917 5917 5918 5919 5919 5918 5917 5917 5918
5920 5920 5920 5921 5921 5921 5920 5920 5920 5920 5921 5921 5920 5920 5920 5920 5921 5922 5922 5922 5922 5922 5922 5921 5921 5920 5918 5918 5918 5918 5918 5918 5918 5918 5917 5917 5917 5917 5917 5917 5917 5917 5917 5917 5917 5917 5917 5916 5916 5916 5915 5915 5915 5915 5916 5916 5916 5916 5915 5915 5915 5916 5915 5916 5916 5916 5917 5917 5918 5918 5918 5918 5918 5918 5918 5918 5918 5918 5918 5917 5917 5916 5916 5915 5915 5915 5915 5916 5916 5917 5918 5919 5919 5918 5916 5916 5917
5920 5920 5921 5921 5922 5922 5922 5922 5921 5921 5922 5921 5921 5921 5920 5921 5922 5922 5922 5922 5922 5922 5922 5922 5921 5920 5919 5918 5918 5918 5918 5918 5918 5918 5918 5918 5918 5917 5917 5917 5917 5917 5918 5918 5918 5918 5918 5918 5917 5916 5916 5916 5916 5916 5916 5916 5917 5916 5916 5916 5916 5916 5916 5916 5916 5916 5916 5916 5917 5917 5917 5917 5917 5917 5917 5917 5917 5917 5917 5917 5917 5917 5916 5915 5914 5914 5914 5914 5915 5917 5918 5918 5918 5918 5917 5915 5915
5921 5921 5922 5922 5923 5923 5923 5923 5923 5922 5922 5922 5921 5921 5921 5921 5922 5922 5922 5922 5922 5923 5922 5921 5921 5921 5919 5918 5919 5919 5919 5919 5918 5918 5918 5918 5918 5918 5918 5918 5918 5918 5918 5918 5918 5919 5919 5919 5918 5918 5917 5916 5916 5916 5916 5916 5916 5916 5916 5916 5917 5917 5917 5917 5917 5916 5916 5916 5916 5917 5917 5917 5917 5917 5917 5916 5916 5916 5916 5916 5916 5916 5916 5915 5914 5913 5912 5912 5914 5916 5916 5917 5918 5917 5916 5914 5913
5922 5922 5923 5923 5924 5924 5924 5924 5924 5923 5922 5922 5922 5921 5921 5922 5922 5922 5922 5922 5922 5922 5922 5921 5921 5921 5920 5919 5919 5919 5920 5919 5919 5919 5919 5919 5919 5918 5918 5918 5918 5918 5918 5918 5918 5919 5919 5919 5919 5918 5918 5918 5917 5917 5917 5917 5916 5916 5916 5916 5916 5916 5917 5917 5917 5916 5916 5915 5916 5916 5917 5917 5917 5916 5916 5916 5915 5915 5915 5915 5915 5915 5914 5914 5914 5912 5911 5912 5912 5913 5914 5915 5916 5916 5915 5913 5912
5922 5923 5924 5924 5925 5925 5925 5925 5924 5923 5923 5922 5922 5922 5922 5923 5923 5922 5921 5921 5921 5921 5921 5921 5921 5920 5920 5920 5919 5920 5920 5920 5919 5919 5919 5919 5919 5918 5918 5918 5918 5918 5918 5918 5918 5918 5919 5919 5919 5919 5918 5918 5918 5918 5917 5916 5916 5915 5916 5916 5917 5917 5917 5917 5916 5916 5916 5915 5915 5916 5916 5916 5916 5916 5916 5916 5915 5915 5914 5914 5914 5913 5913 5913 5913 5912 5911 5911 5911 5911 5911 5913 5913 5914 5913 5912 5912
5922 5923 5925 5925 5926 5926 5925 5924 5924 5923 5923 5923 5923 5923 5923 5923 5923 5922 5921 5921 5921 5921 5921 5921 5921 5920 5920 5920 5920 5920 5920 5920 5920 5920 5919 5919 5919 5919 5918 5918 5918 5918 5918 5918 5918 5918 5919 5919 5919 5919 5918 5918 5918 5917 5917 5916 5916 5917 5917 5917 5918 5918 5917 5917 5917 5916 5916 5915 5915 5915 5915 5915 5916 5916 5916 5916 5915 5915 5914 5913 5913 5912 5912 5912 5912 5912 5910 5911 5911 5910 5910 5910 5911 5911 5911 5911 5911
5923 5924 5925 5926 5926 5926 5925 5924 5924 5924 5924 5924 5924 5924 5925 5924 5923 5922 5922 5921 5921 5921 5921 5921 5921 5920 5920 5919 5919 5920 5920 5920 5920 5920 5920 5919 5919 5919 5919 5918 5918 5918 5918 5918 5918 5918 5918 5919 5919 5919 5918 5917 5917 5916 5916 5916 5917 5917 5917 5917 5917 5917 5917 5917 5917 5916 5916 5916 5915 5914 5914 5914 5915 5915 5916 5915 5915 5914 5914 5913 5912 5911 5911 5910 5910 5910 5910 5910 5911 5910 5909 5908 5908 5908 5908 5908 5909
5923 5925 5926 5926 5926 5926 5925 5925 5925 5924 5924 5925 5925 5926 5926 5925 5924 5924 5922 5921 5921 5921 5921 5921 5921 5920 5920 5919 5919 5919 5919 5920 5920 5920 5920 5920 5919 5919 5919 5918 5918 5918 5918 5918 5918 5918 5918 5918 5918 5917 5917 5916 5915 5915 5916 5916 5916 5916 5916 5916 5916 5916 5916 5916 5915 5915 5915 5915 5915 5914 5913 5913 5914 5914 5914 5914 5913 5913 5912 5911 5911 5910 5910 5909 5909 5909 5908 5908 5908 5908 5908 5907 5907 5906 5906 5906 5906
5924 5925 5926 5926 5926 5926 5926 5926 5925 5925 5925 5926 5926 5926 5926 5925 5924 5923 5922 5921 5921 5920 5921 5921 5921 5920 5920 5919 5919 5919 5919 5919 5920 5920 5920 5920 5919 5919 5918 5918 5918 5918 5918 5917 5917 5917 5917 5917 5916 5916 5915 5914 5914 5914 5914 5914 5914 5914 5915 5915 5915 5915 5914 5914 5913 5913 5913 5913 5913 5913 5913 5912 5912 5912 5912 5912 5912 5911 5910 5910 5909 5908 5908 5908 5907 5907 5907 5906 5906 5907 5907 5906 5906 5905 5904 5904 5904
5924 5925 5925 5926 5926 5927 5927 5926 5926 5926 5926 5926 5926 5926 5925 5925 5924 5923 5922 5921 5920 5920 5920 5920 5920 5920 5919 5919 5919 5918 5918 5919 5919 5919 5919 5919 5919 5918 5918 5918 5918 5918 5917 5917 5917 5917 5917 5916 5915 5914 5913 5913 5912 5912 5913 5913 5913 5914 5914 5914 5913 5913 5912 5912 5911 5911 5911 5911 5911 5911 5911 5910 5910 5910 5910 5910 5910 5909 5908 5908 5907 5906 5906 5906 5905 5905 5905 5905 5905 5905 5905 5905 5905 5904 5903 5902 5902
5924 5925 5924 5925 5926 5927 5927 5926 5926 5927 5927 5926 5926 5926 5925 5925 5924 5923 5922 5921 5920 5920 5920 5920 5920 5919 5919 5918 5918 5918 5918 5918 5919 5919 5919 5919 5918 5918 5917 5917 5917 5917 5917 5917 5916 5916 5916 5915 5915 5914 5913 5912 5912 5912 5912 5912 5912 5913 5913 5912 5912 5912 5911 5911 5910 5909 5909 5908 5908 5908 5908 5908 5908 5908 5907 5907 5907 5907 5906 5906 5905 5904 5903 5903 5903 5903 5903 5903 5903 5903 5903 5903 5903 5903 5902 5901 5900
5924 5924 5924 5925 5925 5926 5927 5927 5927 5927 5927 5927 5926 5926 5926 5925 5925 5924 5922 5922 5921 5921 5920 5920 5920 5919 5919 5918 5918 5918 5918 5919 5919 5919 5919 5918 5918 5917 5917 5917 5917 5917 5917 5916 5916 5916 5916 5915 5914 5912 5911 5911 5911 5911 5911 5911 5911 5911 5911 5910 5910 5911 5910 5910 5908 5907 5907 5906 5906 5906 5906 5906 5906 5906 5906 5905 5905 5904 5904 5904 5903 5903 5902 5902 5902 5902 5902 5902 5901 5901 5901 5901 5901 5901 5901 5900 5899
5923 5924 5924 5925 5925 5926 5927 5927 5927 5927 5927 5927 5927 5927 5926 5926 5926 5925 5923 5922 5922 5921 5921 5920 5920 5920 5919 5918 5918 5918 5918 5919 5919 5919 5919 5918 5917 5917 5917 5916 5916 5916 5916 5916 5916 5915 5915 5915 5913 5911 5909 5909 5909 5909 5909 5910 5910 5909 5908 5908 5908 5909 5908 5907 5906 5905 5905 5904 5903 5904 5904 5904 5904 5904 5903 5903 5903 5902 5902 5902 5901 5901 5901 5900 5900 5899 5899 5899 5899 5899 5899 5899 5899 5899 5899 5898 5897
5922 5923 5924 5925 5925 5926 5926 5927 5927 5927 5927 5927 5927 5927 5926 5926 5926 5926 5924 5923 5923 5921 5921 5920 5920 5920 5919 5919 5918 5918 5918 5918 5918 5918 5918 5917 5916 5916 5916 5916 5916 5916 5915 5915 5915 5915 5914 5914 5912 5909 5908 5907 5907 5908 5908 5908 5908 5907 5907 5906 5907 5907 5906 5905 5904 5903 5903 5902 5901 5902 5902 5902 5902 5901 5900 5899 5899 5900 5900 5900 5899 5899 5899 5898 5897 5896 5896 5896 5897 5897 5897 5897 5897 5897 5897 5897 5896
5922 5924 5924 5925 5925 5926 5926 5927 5927 5927 5927 5926 5926 5927 5927 5926 5926 5926 5925 5924 5923 5922 5921 5921 5921 5921 5920 5919 5919 5918 5918 5918 5918 5917 5917 5916 5915 5915 5915 5915 5914 5914 5914 5914 5914 5914 5914 5913 5911 5909 5908 5907 5906 5906 5906 5906 5906 5906 5905 5905 5905 5904 5904 5903 5902 5901 5901 5901 5900 5900 5900 5900 5899 5898 5897 5896 5896 5896 5896 5897 5897 5896 5897 5896 5895 5894 5893 5893 5893 5894 5894 5894 5894 5894 5895 5894 5894
5921 5923 5925 5925 5925 5926 5926 5927 5927 5927 5927 5926 5926 5927 5927 5926 5926 5926 5925 5924 5924 5922 5921 5922 5921 5921 5921 5920 5919 5918 5918 5917 5917 5917 5916 5916 5915 5914 5914 5914 5913 5913 5913 5913 5913 5913 5912 5912 5911 5909 5908 5907 5906 5905 5905 5905 5905 5905 5904 5903 5903 5902 5902 5901 5901 5901 5900 5899 5898 5898 5897 5896 5896 5896 5895 5894 5893 5892 5892 5893 5893 5893 5893 5894 5893 5892 5891 5891 5891 5891 5891 5891 5891 5891 5891 5892 5891
5920 5922 5924 5926 5925 5925 5926 5926 5926 5926 5926 5926 5926 5927 5927 5926 5925 5926 5925 5924 5924 5923 5922 5922 5922 5922 5921 5920 5919 5919 5918 5918 5917 5917 5917 5916 5916 5915 5914 5913 5913 5912 5912 5912 5913 5912 5911 5911 5910 5909 5907 5906 5905 5904 5904 5903 5903 5903 5903 5902 5901 5900 5900 5900 5900 5899 5898 5897 5896 5894 5893 5893 5892 5893 5892 5892 5891 5890 5889 5889 5889 5889 5889 5890 5890 5890 5889 5888 5888 5888 5888 5888 5888 5888 5888 5888 5889
5919 5919 5921 5924 5925 5925 5926 5926 5926 5926 5926 5926 5926 5926 5926 5926 5925 5925 5925 5925 5924 5923 5922 5922 5922 5922 5921 5920 5919 5919 5918 5918 5918 5917 5917 5917 5916 5915 5914 5914 5913 5912 5912 5911 5911 5911 5910 5909 5909 5908 5907 5906 5905 5904 5903 5902 5902 5901 5900 5899 5898 5899 5899 5899 5898 5897 5895 5893 5892 5891 5890 5889 5888 5888 5888 5889 5889 5888 5886 5886 5885 5885 5885 5885 5886 5886 5886 5885 5885 5885 5885 5885 5884 5885 5885 5885 5886
5919 5919 5920 5922 5924 5925 5925 5925 5925 5925 5925 5926 5926 5926 5926 5926 5926 5925 5925 5925 5924 5923 5922 5922 5922 5921 5921 5920 5919 5919 5918 5918 5918 5918 5917 5917 5916 5915 5914 5913 5913 5912 5911 5911 5910 5910 5909 5908 5907 5907 5906 5905 5904 5903 5902 5902 5901 5899 5897 5896 5896 5898 5897 5896 5895 5893 5891 5890 5888 5888 5887 5886 5885 5884 5884 5884 5885 5885 5884 5883 5882 5881 5881 5881 5881 5881 5882 5882 5881 5881 5881 5881 5881 5882 5882 5882 5883
5919 5919 5919 5921 5922 5924 5924 5925 5925 5925 5925 5925 5925 5925 5925 5926 5926 5925 5925 5925 5924 5923 5922 5922 5921 5921 5921 5920 5919 5919 5918 5918 5918 5918 5917 5917 5916 5916 5915 5914 5912 5911 5910 5910 5909 5908 5907 5907 5906 5905 5905 5904 5903 5902 5901 5900 5899 5896 5894 5892 5894 5896 5894 5891 5890 5889 5888 5887 5886 5885 5885 5885 5883 5881 5880 5880 5880 5881 5881 5880 5878 5878 5877 5877 5877 5877 5878 5878 5877 5877 5878 5878 5879 5879 5879 5879 5879
5918 5919 5920 5920 5921 5922 5923 5924 5924 5924 5924 5925 5925 5925 5925 5925 5926 5925 5924 5925 5924 5923 5922 5921 5921 5921 5920 5920 5919 5919 5918 5918 5918 5918 5917 5916 5916 5915 5915 5914 5913 5912 5910 5909 5908 5907 5906 5906 5905 5904 5903 5902 5902 5901 5900 5899 5897 5894 5891 5889 5891 5895 5892 5888 5887 5886 5885 5884 5883 5882 5882 5882 5881 5879 5877 5876 5876 5876 5876 5876 5875 5874 5874 5874 5874 5873 5873 5873 5873 5874 5874 5875 5876 5876 5876 5876 5875
5918 5919 5919 5920 5920 5921 5922 5923 5923 5924 5924 5924 5924 5925 5924 5925 5925 5924 5923 5923 5923 5922 5921 5921 5920 5920 5920 5920 5919 5919 5918 5918 5918 5917 5917 5916 5915 5915 5914 5913 5912 5911 5910 5910 5908 5907 5906 5905 5903 5902 5902 5901 5900 5900 5899 5897 5895 5893 5890 5888 5888 5891 5891 5887 5884 5883 5882 5882 5880 5879 5878 5877 5877 5876 5874 5872 5872 5872 5872 5872 5872 5871 5870 5869 5869 5869 5869 5868 5868 5869 5869 5871 5872 5872 5872 5872 5872
5918 5919 5919 5919 5919 5920 5921 5922 5923 5923 5923 5923 5924 5924 5924 5924 5924 5924 5923 5922 5922 5921 5921 5921 5920 5920 5920 5919 5919 5918 5918 5918 5917 5917 5916 5915 5915 5914 5913 5912 5911 5910 5909 5908 5908 5907 5905 5904 5903 5902 5901 5900 5900 5899 5898 5896 5894 5892 5890 5887 5886 5887 5887 5885 5883 5881 5880 5879 5877 5875 5874 5873 5872 5872 5870 5869 5868 5868 5868 5868 5867 5867 5865 5864 5865 5867 5866 5865 5864 5864 5865 5866 5866 5867 5868 5868 5869
5918 5918 5918 5918 5919 5919 5920 5921 5922 5922 5922 5923 5923 5923 5924 5924 5924 5924 5923 5922 5921 5920 5920 5920 5920 5919 5919 5919 5918 5918 5918 5917 5917 5916 5915 5914 5914 5913 5912 5911 5910 5909 5908 5907 5906 5905 5904 5902 5901 5900 5899 5898 5898 5897 5896 5895 5894 5892 5889 5887 5885 5884 5883 5882 5880 5878 5877 5875 5873 5871 5869 5869 5868 5867 5866 5865 5865 5864 5863 5863 5863 5863 5861 5859 5861 5862 5862 5861 5861 5861 5861 5860 5861 5863 5864 5865 5865
5917 5917 5918 5918 5918 5919 5919 5920 5920 5921 5921 5922 5922 5922 5923 5924 5924 5923 5922 5921 5921 5920 5919 5919 5919 5919 5918 5918 5918 5917 5917 5917 5916 5915 5914 5913 5912 5912 5910 5909 5908 5907 5906 5905 5904 5903 5902 5900 5899 5898 5897 5896 5895 5894 5893 5892 5891 5889 5887 5884 5882 5880 5879 5878 5877 5875 5874 5872 5871 5869 5867 5866 5864 5863 5861 5860 5860 5859 5859 5858 5858 5858 5856 5855 5856 5857 5856 5856 5858 5858 5857 5856 5857 5859 5861 5861 5861
5915 5916 5916 5917 5917 5918 5918 5919 5919 5919 5920 5921 5921 5921 5922 5923 5923 5922 5922 5921 5920 5919 5918 5919 5919 5918 5918 5917 5916 5916 5916 5916 5915 5914 5913 5912 5911 5910 5909 5908 5906 5905 5904 5903 5903 5901 5900 5899 5898 5896 5895 5893 5892 5891 5889 5888 5887 5885 5883 5882 5879 5877 5875 5873 5872 5870 5869 5868 5868 5867 5866 5864 5861 5859 5857 5855 5854 5854 5854 5853 5853 5852 5851 5850 5851 5852 5851 5851 5852 5852 5852 5852 5854 5855 5856 5855 5857
5914 5914 5914 5915 5916 5916 5917 5917 5918 5919 5919 5920 5920 5920 5920 5921 5921 5921 5920 5920 5919 5918 5917 5918 5918 5918 5917 5916 5915 5914 5914 5914 5914 5913 5911 5910 5910 5909 5907 5906 5905 5904 5902 5902 5901 5900 5899 5897 5895 5894 5892 5891 5889 5887 5885 5884 5882 5881 5879 5878 5876 5874 5872 5870 5867 5865 5863 5862 5862 5861 5861 5860 5858 5856 5854 5851 5849 5849 5848 5848 5847 5847 5846 5845 5845 5846 5848 5848 5848 5847 5847 5848 5849 5850 5850 5850 5852
5912 5912 5913 5914 5915 5915 5916 5917 5917 5918 5918 5918 5918 5918 5919 5920 5920 5920 5919 5919 5918 5917 5916 5916 5916 5916 5916 5915 5914 5913 5912 5912 5911 5911 5910 5909 5908 5907 5905 5904 5903 5902 5900 5899 5898 5897 5895 5894 5892 5890 5888 5886 5885 5883 5881 5879 5877 5876 5874 5872 5870 5869 5867 5865 5863 5860 5858 5857 5856 5855 5855 5855 5853 5851 5850 5847 5846 5844 5844 5843 5843 5842 5842 5841 5840 5841 5842 5844 5844 5843 5844 5844 5845 5844 5844 5846 5848
5911 5911 5912 5913 5914 5915 5915 5915 5916 5916 5916 5917 5917 5917 5917 5918 5919 5919 5919 5918 5916 5916 5915 5915 5914 5914 5914 5913 5912 5911 5911 5910 5910 5909 5908 5907 5906 5905 5904 5903 5901 5900 5898 5897 5895 5894 5892 5891 5890 5888 5886 5884 5882 5879 5877 5875 5874 5872 5870 5868 5866 5863 5861 5860 5858 5856 5854 5852 5851 5850 5849 5849 5848 5846 5844 5842 5840 5839 5838 5838 5838 5838 5837 5836 5835 5836 5837 5839 5839 5839 5839 5839 5840 5840 5840 5842 5843
5910 5910 5911 5912 5912 5913 5914 5914 5914 5914 5914 5915 5916 5915 5915 5916 5917 5918 5917 5916 5915 5915 5914 5913 5913 5913 5912 5912 5911 5910 5909 5909 5908 5907 5906 5905 5905 5903 5902 5901 5900 5898 5897 5896 5894 5892 5891 5889 5887 5885 5883 5881 5879 5876 5874 5872 5870 5868 5866 5863 5861 5858 5856 5853 5851 5849 5848 5846 5845 5843 5842 5842 5841 5840 5839 5837 5835 5833 5832 5832 5832 5832 5831 5831 5831 5832 5833 5833 5833 5834 5833 5833 5835 5837 5836 5836 5836
5909 5909 5910 5911 5911 5911 5911 5912 5912 5911 5911 5913 5913 5913 5913 5914 5916 5916 5915 5915 5914 5914 5913 5912 5912 5911 5911 5910 5909 5908 5907 5907 5906 5905 5904 5903 5902 5901 5900 5899 5898 5897 5896 5895 5894 5892 5890 5888 5886 5884 5881 5879 5877 5875 5872 5870 5868 5866 5863 5860 5858 5855 5853 5850 5847 5844 5842 5840 5839 5837 5836 5835 5834 5834 5833 5832 5830 5828 5826 5826 5826 5826 5825 5825 5825 5825 5827 5826 5826 5827 5827 5828 5830 5831 5831 5831 5831
5908 5908 5909 5909 5909 5909 5909 5909 5909 5909 5909 5910 5911 5911 5910 5911 5914 5915 5914 5914 5913 5913 5912 5911 5911 5910 5909 5909 5907 5906 5905 5905 5904 5902 5901 5900 5899 5898 5897 5897 5896 5895 5894 5893 5892 5891 5889 5887 5885 5883 5880 5878 5876 5874 5872 5869 5867 5864 5861 5858 5855 5853 5850 5847 5844 5841 5838 5836 5834 5832 5831 5829 5828 5827 5827 5826 5824 5823 5821 5820 5821 5821 5819 5819 5818 5819 5820 5820 5819 5820 5820 5822 5824 5824 5825 5826 5826
5906 5907 5907 5907 5907 5906 5907 5906 5906 5907 5908 5908 5909 5909 5908 5910 5912 5913 5913 5913 5912 5911 5911 5910 5909 5909 5908 5907 5906 5904 5903 5903 5902 5900 5899 5898 5897 5896 5896 5894 5894 5893 5892 5891 5890 5888 5887 5885 5883 5880 5878 5876 5874 5872 5869 5867 5864 5861 5858 5855 5852 5849 5846 5843 5841 5838 5835 5833 5830 5828 5826 5825 5823 5821 5820 5819 5818 5817 5815 5814 5814 5815 5814 5813 5812 5812 5813 5814 5814 5814 5814 5816 5817 5818 5819 5819 5820
5905 5905 5905 5906 5905 5905 5905 5905 5905 5906 5906 5907 5907 5907 5907 5908 5910 5911 5911 5911 5910 5910 5909 5909 5908 5907 5906 5905 5904 5903 5901 5901 5900 5899 5898 5896 5896 5895 5894 5893 5892 5891 5890 5889 5887 5886 5884 5882 5880 5877 5875 5873 5871 5869 5866 5863 5861 5858 5855 5851 5848 5845 5842 5840 5837 5835 5832 5829 5827 5824 5822 5820 5817 5815 5814 5813 5812 5810 5809 5807 5807 5808 5808 5807 5806 5805 5806 5807 5808 5808 5809 5810 5811 5812 5813 5813 5814
5904 5904 5904 5904 5904 5904 5904 5904 5905 5905 5905 5905 5905 5905 5905 5906 5907 5908 5909 5909 5909 5908 5907 5907 5906 5905 5904 5903 5902 5901 5900 5899 5898 5897 5896 5895 5894 5893 5892 5891 5890 5889 5887 5886 5884 5882 5880 5878 5876 5874 5871 5869 5867 5865 5862 5859 5857 5854 5851 5848 5846 5843 5840 5837 5834 5831 5828 5825 5822 5820 5817 5815 5813 5810 5808 5807 5806 5804 5803 5802 5801 5801 5801 5801 5801 5800 5800 5800 5801 5802 5802 5803 5804 5806 5806 5807 5809
5902 5902 5903 5903 5903 5903 5903 5903 5903 5903 5903 5903 5903 5903 5904 5904 5905 5906 5906 5906 5906 5906 5905 5905 5904 5903 5902 5902 5900 5899 5898 5897 5897 5896 5894 5893 5892 5891 5891 5889 5888 5886 5885 5883 5881 5879 5877 5874 5872 5870 5867 5865 5863 5860 5858 5855 5853 5850 5848 5845 5842 5839 5837 5833 5830 5827 5824 5820 5817 5815 5812 5810 5807 5805 5803 5801 5800 5799 5798 5797 5795 5795 5795 5794 5794 5794 5794 5794 5794 5795 5796 5797 5798 5799 5800 5801 5803
5900 5901 5902 5901 5901 5901 5901 5901 5901 5901 5901 5901 5901 5901 5902 5902 5903 5903 5903 5903 5904 5903 5903 5903 5902 5901 5900 5899 5898 5897 5896 5895 5894 5893 5892 5891 5890 5889 5888 5886 5885 5884 5882 5880 5878 5875 5873 5871 5869 5867 5864 5861 5859 5856 5854 5851 5849 5846 5843 5841 5838 5835 5832 5829 5826 5823 5819 5816 5813 5810 5807 5804 5802 5800 5798 5796 5794 5793 5792 5792 5790 5789 5789 5788 5788 5788 5787 5787 5787 5788 5789 5790 5791 5792 5793 5795 5797
5899 5900 5900 5899 5899 5899 5899 5899 5899 5899 5899 5899 5899 5899 5900 5900 5901 5901 5900 5900 5901 5901 5901 5900 5899 5898 5897 5897 5896 5895 5894 5893 5891 5890 5889 5888 5887 5886 5885 5883 5882 5881 5879 5876 5874 5872 5870 5868 5865 5863 5860 5857 5855 5852 5850 5847 5844 5841 5839 5836 5833 5830 5827 5824 5821 5818 5815 5811 5808 5805 5802 5799 5796 5794 5793 5791 5789 5788 5786 5786 5785 5784 5783 5782 5782 5781 5780 5780 5780 5781 5782 5784 5785 5785 5786 5788 5790
5898 5898 5897 5897 5897 5897 5897 5896 5896 5897 5897 5897 5897 5898 5898 5899 5899 5898 5898 5897 5898 5898 5898 5897 5897 5896 5895 5894 5893 5892 5891 5890 5888 5887 5886 5884 5883 5882 5881 5880 5879 5877 5875 5872 5870 5868 5866 5864 5861 5859 5856 5854 5851 5849 5846 5843 5840 5837 5834 5832 5829 5825 5822 5819 5816 5813 5809 5806 5803 5800 5798 5795 5792 5790 5788 5786 5784 5782 5780 5779 5778 5777 5776 5776 5775 5774 5774 5773 5773 5774 5775 5777 5778 5778 5779 5780 5782
5895 5895 5895 5895 5895 5895 5895 5894 5894 5894 5894 5894 5894 5895 5897 5898 5896 5896 5895 5895 5895 5895 5895 5894 5894 5893 5892 5891 5890 5889 5888 5887 5885 5884 5883 5881 5879 5878 5877 5876 5875 5873 5871 5868 5866 5864 5862 5860 5857 5855 5852 5849 5847 5844 5842 5839 5836 5833 5830 5827 5824 5820 5817 5814 5810 5807 5804 5801 5799 5796 5793 5790 5788 5785 5783 5781 5779 5776 5774 5772 5771 5770 5769 5768 5768 5767 5767 5767 5766 5767 5768 5769 5771 5772 5772 5774 5775
5893 5893 5892 5892 5892 5892 5892 5892 5892 5892 5892 5891 5891 5893 5896 5896 5894 5893 5892 5892 5892 5892 5892 5891 5891 5890 5889 5888 5887 5886 5885 5883 5882 5880 5879 5877 5875 5874 5873 5872 5871 5869 5866 5864 5862 5860 5858 5855 5853 5850 5847 5845 5842 5840 5837 5835 5832 5829 5826 5823 5819 5816 5812 5809 5805 5802 5799 5796 5794 5792 5789 5786 5784 5781 5779 5776 5774 5771 5769 5766 5764 5763 5762 5761 5761 5760 5760 5759 5759 5760 5760 5762 5763 5765 5766 5768 5769
5891 5890 5890 5890 5890 5890 5890 5890 5890 5890 5890 5890 5889 5889 5893 5894 5892 5891 5890 5889 5889 5889 5889 5888 5887 5887 5886 5885 5884 5883 5881 5880 5878 5877 5875 5873 5872 5870 5869 5868 5867 5865 5862 5860 5858 5856 5854 5851 5849 5846 5843 5840 5838 5835 5833 5830 5828 5825 5822 5818 5815 5812 5808 5805 5802 5798 5795 5792 5790 5787 5785 5782 5780 5777 5774 5771 5768 5766 5763 5761 5759 5757 5756 5755 5754 5754 5753 5752 5752 5753 5754 5755 5756 5757 5759 5761 5762